Terminal Aerodrome Forecast
Issued by NWS

Home | Current Version | Previous Version | Text Only | Print | Product List | Glossary On
Versions: 1 2 3 4 5 6 7 8 9 10 11 12 13 14 15 16
656
FTUS43 KICT 271133
TAFCNU
TAF
KCNU 271133Z 2712/2812 10010KT P6SM BKN250
     FM271500 15013G19KT P6SM SCT030
     FM271900 18014G20KT P6SM VCTS BKN035CB
     FM280300 35017G24KT P6SM VCTS BKN030CB
     FM280600 33009KT P6SM BKN025=

USA.gov is the U.S. government's official web portal to all federal, state and local government web resources and services.